[[{"header":{"parameterUnit":"m.s-1","parameterCategory":1,"la1":30.2991,"la2":30.254,"lo1":-89.0895,"lo2":-89.0444,"dy":0.0017,"dx":0.0017,"nx":28,"ny":28,"refTime":"2025-12-17T09:00:00:Z","depth":0,"parameterNumber":2,"parameterNumberName":"U-component_of_WINDS"},"data":[0,0,0,0,0,0,0,0,0,0,0,0,0,0,0,0,0,0,0,0,0,0,0,0,0,0,0,0,0,0,0,0,0,0,0,0,0,0,0,0,0,0,0,0,0,0,0,0,0,0,0,0,0,0,0,0,0,0,-2.7057,-2.7058,0,-2.7092,-2.7092,-2.7092,-2.7051,-2.7049,-2.7048,-2.7046,-2.708,-2.7082,-2.7084,0,0,0,0,0,0,0,0,0,0,0,0,0,-2.6955,-2.6957,-2.7057,-2.7058,-2.7058,-2.7092,-2.7092,-2.7093,-2.7051,-2.7049,-2.7048,-2.7046,-2.7079,-2.7082,-2.7085,0,0,0,0,0,0,0,0,0,0,0,0,0,-2.6995,-2.6957,-2.7057,-2.7042,-2.7041,-2.7092,-2.7092,-2.7093,-2.7052,-2.7049,-2.7047,-2.7045,-2.7078,-2.7082,-2.7085,-2.7152,0,0,-2.7096,-2.7097,0,0,0,0,0,0,0,0,-2.6993,-2.6999,-2.7043,-2.7043,-2.7042,-2.7065,-2.7068,-2.7113,-2.7052,-2.7047,-2.7046,-2.7044,-2.7077,-2.708,-2.7091,-2.7154,-2.7155,-2.7096,-2.7098,-2.7099,-2.71,0,0,0,0,0,0,0,-2.699,-2.6997,-2.7071,-2.7044,-2.7043,-2.7032,-2.7036,-2.7076,-2.7074,-2.7048,-2.7045,-2.7049,-2.7076,-2.7088,-2.7092,-2.7156,-2.7096,-2.7099,-2.7101,-2.7102,-2.7276,-2.7278,0,0,0,0,0,0,-2.6989,-2.6995,-2.707,-2.7072,-2.7011,-2.7036,-2.704,-2.706,-2.7074,-2.7074,-2.7051,-2.7047,-2.7083,-2.7088,-2.7093,-2.7173,-2.7099,-2.7103,-2.7105,-2.7274,-2.7277,-2.7279,0,0,0,0,0,0,-2.6987,-2.6996,-2.7068,-2.7033,-2.7041,-2.704,-2.7063,-2.7062,-2.7074,-2.7077,-2.7076,-2.7065,-2.7082,-2.7088,-2.7138,-2.7174,-2.7104,-2.7107,-2.7271,-2.7275,-2.7278,-2.7334,0,0,0,0,0,0,-2.6984,-2.6996,-2.7022,-2.7034,-2.7043,-2.7113,-2.7065,-2.7064,-2.708,-2.7075,-2.7089,-2.7089,-2.708,-2.7133,-2.7142,-2.7177,-2.711,-2.7267,-2.7272,-2.7277,-2.7329,-2.7339,-2.7348,0,0,0,0,0,-2.6981,-2.7035,-2.7023,-2.7032,-2.7075,-2.7116,-2.7121,-2.7111,-2.7083,-2.7109,-2.7111,-2.7089,-2.7169,-2.7139,-2.7148,-2.7185,-2.7265,-2.7271,-2.7276,-2.7324,-2.7337,-2.7347,0,0,0,0,0,0,-2.7026,-2.7036,-2.7023,-2.7083,-2.7099,-2.7108,-2.714,-2.7124,-2.7147,-2.7142,-2.7127,-2.7131,-2.7184,-2.719,-2.7156,-2.7251,-2.7212,-2.722,-2.7246,-2.7258,-2.7267,-2.7264,-2.7113,0,0,0,0,0,-2.7044,-2.7076,-2.7083,-2.7135,-2.7144,-2.7141,-2.7158,-2.7149,-2.7164,-2.7171,-2.7176,-2.7192,-2.722,-2.7239,-2.7266,-2.733,-2.7332,-2.736,-2.7369,-2.7377,-2.7384,-2.7418,-2.7431,-2.7298,-2.7298,-2.7298,0,0,-2.7079,-2.7088,-2.7109,-2.7144,-2.7155,-2.7189,-2.7147,-2.7184,-2.7208,-2.7176,-2.7224,-2.7229,-2.7245,-2.7303,-2.7328,-2.7309,-2.7421,-2.7384,-2.739,-2.7393,-2.7425,-2.7438,-2.7449,-2.7302,-2.7301,-2.7301,0,0,-2.716,-2.7171,-2.7216,-2.7228,-2.7246,-2.7244,-2.7255,-2.7268,-2.727,-2.7318,-2.7295,-2.7324,-2.7373,-2.7386,-2.7399,-2.7488,-2.7468,-2.7497,-2.7546,-2.758,-2.759,-2.7599,-2.7631,-2.7642,-2.7503,-2.7504,-2.7504,0,-2.7202,-2.7252,-2.7241,-2.728,-2.7296,-2.727,-2.7315,-2.7327,-2.7353,-2.7364,-2.7343,-2.7405,-2.7414,-2.7474,-2.7496,-2.7508,-2.7519,-2.7494,-2.759,-2.7599,-2.7607,-2.7637,-2.7649,-2.7507,-2.7506,-2.7506,-2.7506,0,-2.7302,-2.7337,-2.7371,-2.7397,-2.7417,-2.7459,-2.7455,-2.7476,-2.7466,-2.7466,-2.7516,-2.7526,-2.7555,-2.7568,-2.7558,-2.7628,-2.7615,-2.7592,-2.7552,-2.7623,-2.7651,-2.7662,-2.7512,-2.751,-2.7509,-2.7509,0,0,-2.7411,-2.7432,-2.7445,-2.7457,-2.7476,-2.7502,-2.7543,-2.7572,-2.7591,-2.761,-2.7643,-2.7687,-2.7666,-2.7681,-2.7672,-2.7702,-2.7771,-2.7675,-2.7675,-2.7692,-2.7849,-2.7866,-2.7879,-2.7759,-2.7761,-2.7763,-2.7847,0,-2.7493,-2.7564,-2.7557,-2.7625,-2.7657,-2.7633,-2.7669,-2.7684,-2.7686,-2.7714,-2.7716,-2.7747,-2.7717,-2.7725,-2.7754,-2.7757,-2.7802,-2.7751,-2.779,-2.7791,-2.7786,-2.7894,-2.7911,-2.7991,-2.7858,-2.786,-2.7861,0,-2.7597,-2.7621,-2.7693,-2.7707,-2.772,-2.7753,-2.7779,-2.7806,-2.7823,-2.7822,-2.784,-2.7826,-2.7867,-2.7828,-2.7884,-2.7849,-2.7865,-2.7869,-2.7872,-2.7874,-2.783,-2.7899,-2.8016,-2.8028,-2.7878,-2.7877,-2.7875,0,-2.767,-2.772,-2.7769,-2.778,-2.7798,-2.7822,-2.783,-2.7845,-2.7863,-2.7886,-2.7898,-2.7925,-2.794,-2.7961,-2.7955,-2.7927,-2.8013,-2.7973,-2.8013,-2.8013,-2.8031,-2.803,-2.8152,-2.8043,-2.8043,-2.8042,-2.8042,0,-2.7761,-2.7806,-2.7802,-2.7832,-2.7882,-2.7873,-2.7922,-2.7927,-2.7941,-2.7972,-2.7953,-2.7983,-2.7973,-2.8002,-2.7998,-2.8045,-2.8052,-2.8053,-2.8051,-2.8054,-2.8054,-2.8063,-2.8058,-2.8045,-2.8045,-2.8044,-2.8044,0,-2.785,-2.7849,-2.7902,-2.7915,-2.792,-2.7956,-2.7967,-2.7996,-2.7997,-2.8036,-2.8045,-2.8046,-2.808,-2.8076,-2.8113,-2.811,-2.8169,-2.8161,-2.8163,-2.8161,-2.8202,-2.8198,-2.8334,-2.8351,-2.8231,-2.8232,-2.8233,0,-2.7908,-2.7942,-2.796,-2.798,-2.799,-2.8022,-2.8041,-2.8034,-2.8054,-2.8077,-2.8103,-2.8134,-2.8159,-2.8213,-2.8217,-2.8246,-2.8238,-2.8283,-2.8242,-2.8244,-2.8238,-2.8236,-2.8239,-2.8291,-2.8293,-2.8294,-2.8295,0,-2.8011,-2.801,-2.8038,-2.8066,-2.809,-2.8111,-2.8131,-2.8148,-2.8143,-2.8167,-2.8201,-2.8221,-2.8259,-2.8291,-2.8318,-2.8326,-2.831,-2.8308,-2.8319,-2.8322,-2.8322,-2.8323,-2.8185,-2.8305,-2.8304,-2.8303,-2.8302,-2.8302,-2.8086,-2.8116,-2.8133,-2.8165,-2.818,-2.8199,-2.8227,-2.8232,-2.8261,-2.8292,-2.8286,-2.8325,-2.8341,-2.8376,-2.8388,-2.8418,-2.8401,-2.8416,-2.842,-2.8424,-2.8429,-2.8318,-2.8422,-2.8422,-2.8422,-2.8422,-2.8421,0,-2.8188,-2.8199,-2.8229,-2.8258,-2.8283,-2.8267,-2.8288,-2.831,-2.8345,-2.8362,-2.8388,-2.8427,-2.8458,-2.8466,-2.8495,-2.8518,-2.8511,-2.8526,-2.8524,-2.8526,-2.8442,-2.843,-2.8531,-2.8531,-2.8531,-2.8531,-2.8531,-2.8531,-2.8244,-2.8293,-2.8294,-2.835,-2.836,-2.8399,-2.8412,-2.843,-2.8444,-2.849,-2.8516,-2.8521,-2.8534,-2.8565,-2.8593,-2.8594,-2.8606,-2.8623,-2.8622,-2.8543,-2.8532,-2.8521,-2.851,-2.8626,-2.8626,-2.8703,-2.8704,-2.8704]},{"header":{"parameterUnit":"m.s-1","parameterCategory":1,"la1":30.2991,"la2":30.254,"lo1":-89.0895,"lo2":-89.0444,"dy":0.0017,"dx":0.0017,"nx":28,"ny":28,"refTime":"2025-12-17T09:00:00:Z","depth":0,"parameterNumber":3,"parameterNumberName":"V-component_of_WINDS"},"data":[0,0,0,0,0,0,0,0,0,0,0,0,0,0,0,0,0,0,0,0,0,0,0,0,0,0,0,0,0,0,0,0,0,0,0,0,0,0,0,0,0,0,0,0,0,0,0,0,0,0,0,0,0,0,0,0,0,0,1.9329,1.933,0,1.9374,1.9374,1.9375,1.9403,1.9404,1.9404,1.9404,1.9445,1.9446,1.9447,0,0,0,0,0,0,0,0,0,0,0,0,0,1.9267,1.9268,1.9329,1.933,1.933,1.9373,1.9374,1.9375,1.9403,1.9404,1.9404,1.9404,1.9445,1.9446,1.9447,0,0,0,0,0,0,0,0,0,0,0,0,0,1.9301,1.9268,1.9329,1.935,1.9352,1.9373,1.9374,1.9375,1.9403,1.9404,1.9404,1.9404,1.9445,1.9446,1.9447,1.945,0,0,1.9452,1.9452,0,0,0,0,0,0,0,0,1.9299,1.9303,1.9346,1.9349,1.9351,1.9383,1.9367,1.94,1.9403,1.9384,1.9404,1.9404,1.9424,1.9427,1.9435,1.9452,1.9454,1.9452,1.9452,1.9453,1.9453,0,0,0,0,0,0,0,1.9297,1.9301,1.9347,1.9347,1.935,1.9356,1.9361,1.9374,1.9402,1.9386,1.9388,1.9393,1.9426,1.9433,1.9436,1.9454,1.9452,1.9453,1.9454,1.9454,1.9477,1.9477,0,0,0,0,0,0,1.9291,1.9299,1.9345,1.9348,1.9325,1.9357,1.9363,1.9373,1.9402,1.9406,1.9393,1.9394,1.9431,1.9434,1.9437,1.9444,1.9453,1.9454,1.9455,1.9477,1.9477,1.9477,0,0,0,0,0,0,1.929,1.9295,1.9343,1.9324,1.9331,1.9358,1.9369,1.9373,1.9381,1.9407,1.9412,1.9396,1.9431,1.9436,1.9447,1.9445,1.9455,1.9456,1.9478,1.9477,1.9477,1.9455,0,0,0,0,0,0,1.9288,1.9295,1.9296,1.9324,1.9332,1.9353,1.9369,1.9374,1.9384,1.9386,1.9411,1.9415,1.9432,1.9445,1.9449,1.9447,1.9457,1.9478,1.9477,1.9477,1.9456,1.9454,1.9452,0,0,0,0,0,1.9286,1.9287,1.9296,1.9302,1.9335,1.9353,1.9357,1.9377,1.9384,1.9386,1.9402,1.9415,1.9445,1.9446,1.945,1.9449,1.9478,1.9478,1.9477,1.9457,1.9454,1.9452,0,0,0,0,0,0,1.9256,1.9291,1.9301,1.9312,1.933,1.9358,1.9361,1.9374,1.9389,1.939,1.9413,1.9418,1.9428,1.944,1.944,1.9454,1.9463,1.9463,1.9446,1.9444,1.9442,1.9439,1.9458,0,0,0,0,0,1.9251,1.9264,1.9294,1.93,1.9309,1.9333,1.9342,1.9356,1.9374,1.9381,1.9399,1.9415,1.9429,1.9437,1.9451,1.9458,1.9464,1.9459,1.9458,1.9456,1.9456,1.9462,1.946,1.9475,1.9475,1.9475,0,0,1.9241,1.9261,1.9268,1.9295,1.931,1.9322,1.9339,1.9351,1.936,1.9383,1.9396,1.9409,1.9429,1.9439,1.9444,1.9449,1.9453,1.9455,1.9454,1.9455,1.9461,1.946,1.9458,1.9475,1.9475,1.9475,0,0,1.9228,1.9244,1.9253,1.9268,1.9292,1.9309,1.931,1.9337,1.9348,1.9361,1.9379,1.939,1.9412,1.9426,1.9436,1.943,1.9442,1.9434,1.9424,1.9429,1.9428,1.9427,1.9426,1.9425,1.9434,1.9434,1.9434,0,1.9211,1.9232,1.9255,1.9267,1.9278,1.9301,1.931,1.9323,1.9349,1.9356,1.9362,1.9392,1.9406,1.942,1.9419,1.9426,1.9429,1.9431,1.9427,1.9426,1.9426,1.9425,1.9424,1.9433,1.9433,1.9433,1.9433,0,1.9211,1.9225,1.9228,1.9255,1.9267,1.9277,1.9301,1.931,1.9323,1.9339,1.9353,1.9372,1.9391,1.9395,1.9407,1.9411,1.9414,1.9423,1.9432,1.9423,1.9422,1.9422,1.9431,1.9431,1.9432,1.9432,0,0,1.918,1.9221,1.9222,1.9235,1.9264,1.9274,1.9285,1.9305,1.9313,1.933,1.934,1.936,1.9369,1.938,1.9394,1.9399,1.9394,1.9407,1.9408,1.9405,1.9401,1.9394,1.9394,1.9403,1.9403,1.9403,1.94,0,1.9172,1.9194,1.9216,1.9231,1.9244,1.9267,1.9277,1.9295,1.931,1.9323,1.9339,1.9353,1.9364,1.9371,1.9377,1.9394,1.9394,1.9394,1.9412,1.9412,1.9407,1.9393,1.9386,1.9382,1.9399,1.9399,1.9399,0,1.9165,1.9184,1.9201,1.923,1.9236,1.9244,1.9265,1.9278,1.9299,1.9309,1.9323,1.9339,1.9351,1.9359,1.9376,1.9376,1.9384,1.9394,1.9394,1.9397,1.9405,1.9396,1.9381,1.9381,1.9399,1.9399,1.9399,0,1.9142,1.9171,1.9186,1.9196,1.923,1.9235,1.9249,1.9271,1.9282,1.93,1.9307,1.9325,1.9335,1.9349,1.9369,1.9372,1.9384,1.9393,1.9393,1.9393,1.9395,1.9394,1.9382,1.9399,1.9399,1.9399,1.9399,0,1.9132,1.9141,1.9176,1.9185,1.9196,1.9221,1.9231,1.9247,1.9266,1.9278,1.9297,1.9308,1.9333,1.9346,1.9362,1.9374,1.9378,1.9387,1.9391,1.9386,1.9385,1.9392,1.9393,1.9399,1.9399,1.9399,1.9399,0,1.9108,1.9132,1.9149,1.918,1.9188,1.9195,1.9222,1.9231,1.9248,1.9262,1.9267,1.9293,1.931,1.9331,1.9354,1.9364,1.9375,1.9381,1.9369,1.9371,1.937,1.937,1.9362,1.9362,1.9379,1.9379,1.9378,0,1.9099,1.9108,1.9141,1.9151,1.9165,1.9181,1.9193,1.9218,1.9229,1.9255,1.9261,1.9279,1.9296,1.9321,1.9341,1.9359,1.9366,1.9362,1.9369,1.9363,1.9367,1.9366,1.9368,1.936,1.936,1.936,1.9359,0,1.9083,1.9095,1.9112,1.9135,1.9149,1.9167,1.9186,1.9193,1.9221,1.9233,1.9251,1.9264,1.9289,1.9307,1.9328,1.9341,1.9355,1.9357,1.9358,1.9353,1.9346,1.9351,1.9365,1.9357,1.9358,1.9358,1.9358,1.9358,1.9067,1.9076,1.9101,1.9121,1.9138,1.9155,1.9166,1.9185,1.9202,1.9225,1.9238,1.9256,1.9278,1.9308,1.932,1.9334,1.9339,1.9341,1.9341,1.9341,1.934,1.9344,1.9338,1.9338,1.9338,1.9338,1.9338,0,1.9052,1.907,1.9088,1.9115,1.913,1.9144,1.9165,1.9177,1.9193,1.9213,1.9229,1.9251,1.9269,1.9291,1.9311,1.9318,1.9325,1.9322,1.9322,1.9325,1.9334,1.9331,1.9316,1.9316,1.9316,1.9316,1.9316,1.9316,1.9046,1.9063,1.9078,1.9103,1.9121,1.914,1.9151,1.9168,1.9184,1.9208,1.9224,1.9239,1.926,1.9281,1.9299,1.9305,1.9311,1.9307,1.9315,1.9322,1.9324,1.9326,1.9324,1.9308,1.9308,1.9305,1.9305,1.9305]}]]